SCP
0 0 0 0 0 0 0 0 1 1 1 0 0 0 0 0 0 0 0 0 0 0 0 0 0 0 0 0 0 0 0 0 0 0 1 1 1 1 1 1 0 0 0
0 0 0 0 0 0 0 1 1 1 1 1 0 0 0 0 0 0 0 0 0 0 0 0 0 0 0 0 0 0 0 0 0 0 0 1 1 1 1 1 0 0 0
0 0 1 1 1 1 1 1 1 1 1 1 0 0 0 0 0 0 0 0 0 0 0 0 0 0 0 0 0 0 0 0 0 0 0 0 1 1 1 1 0 0 0
1 1 1 1 1 1 1 1 1 1 1 0 0 0 0 0 0 0 0 0 0 0 0 0 0 0 0 0 0 0 0 0 0 0 0 0 0 0 0 0 0 0 0
1 1 1 1 1 1 1 1 1 1 0 0 0 0 0 0 0 0 0 0 0 0 0 0 0 0 0 0 0 0 0 0 0 0 0 0 0 0 0 0 0 0 0
1 1 1 1 1 1 1 1 1 1 0 0 0 0 0 0 0 0 0 0 0 0 0 0 0 0 0 0 0 0 0 0 0 0 0 0 0 0 0 0 0 0 0
1 1 1 1 1 1 1 1 1 0 0 0 0 0 0 0 0 0 0 0 0 0 0 0 0 0 0 0 0 0 0 0 0 0 0 0 0 0 0 0 0 0 0
1 1 1 1 1 1 1 1 0 0 0 0 0 0 0 0 0 0 0 0 0 0 0 0 0 0 0 0 0 0 0 0 0 0 0 0 0 0 0 0 0 0 0
1 1 1 1 1 1 0 0 0 0 0 0 0 0 0 0 0 0 0 0 0 0 0 0 0 0 0 0 0 0 0 0 0 0 0 0 0 0 0 0 0 0 0
1 1 1 1 0 0 0 0 0 0 0 0 0 0 0 0 0 0 0 0 0 0 0 0 0 0 0 0 0 0 0 0 0 0 0 0 0 0 0 0 0 0 0
1 1 0 0 0 0 0 0 0 0 0 0 0 0 0 0 0 0 0 0 0 0 0 0 0 0 0 0 0 0 0 0 0 0 0 0 0 0 0 0 0 0 0
0 0 0 0 0 0 0 0 0 0 0 0 0 0 0 0 0 0 0 0 0 0 0 0 0 0 0 0 0 0 0 0 0 0 0 0 0 0 0 0 0 0 0
0 0 0 0 0 0 0 0 0 0 0 0 0 0 0 0 0 0 0 0 0 0 0 0 0 0 0 0 0 0 0 0 0 0 0 0 0 0 0 0 0 0 0
0 0 0 0 0 0 0 0 0 0 0 0 0 0 0 0 0 0 0 0 0 0 0 0 0 0 0 0 0 0 0 0 0 0 0 0 0 0 0 0 0 0 0
0 0 0 0 0 0 0 0 0 0 0 0 0 0 0 0 0 0 0 0 0 0 0 0 0 0 0 0 0 0 0 0 0 0 0 0 0 0 0 0 0 0 0
0 0 0 0 0 0 0 0 0 0 0 0 0 0 0 0 0 0 0 0 0 0 0 0 0 0 0 0 0 0 0 0 0 0 0 0 0 0 0 0 0 0 0
0 0 0 0 0 0 0 0 0 0 0 0 0 0 0 0 0 0 0 0 0 0 0 0 0 0 0 0 0 0 0 0 0 0 0 0 0 0 0 0 0 0 0
0 0 0 0 0 0 0 0 0 0 0 0 0 0 0 0 0 0 0 0 0 0 0 0 0 0 0 0 0 0 0 0 0 0 0 0 0 0 0 0 0 0 0
0 0 0 0 0 0 0 0 0 0 0 0 0 0 0 0 0 0 0 0 0 0 0 0 0 0 0 0 0 0 0 0 0 0 0 0 0 0 0 0 0 0 0
0 0 0 0 0 0 0 0 0 0 0 0 0 0 0 0 0 0 0 0 0 0 0 0 0 0 0 0 0 0 0 0 0 0 0 0 0 0 0 0 0 0 0
0 0 0 0 0 0 0 0 0 0 0 0 0 0 0 0 0 0 0 0 0 0 0 0 0 0 0 0 0 0 0 0 0 0 0 0 0 0 0 0 0 0 0
0 0 0 0 0 0 0 0 0 0 0 0 0 0 0 0 0 0 0 0 0 0 0 0 0 0 0 0 0 0 0 0 0 0 0 0 0 0 0 0 0 0 0
0 0 0 0 0 0 0 0 0 0 0 0 0 0 0 0 0 0 0 0 0 0 0 0 0 0 0 0 0 0 0 0 0 0 0 0 0 0 0 0 0 0 0
0 0 0 0 0 0 0 0 0 0 0 0 0 0 0 0 0 0 0 0 0 0 0 0 0 0 0 0 0 0 0 0 0 0 0 0 0 0 0 0 0 0 0
0 0 0 0 0 0 0 0 0 0 0 0 0 0 0 0 0 0 0 0 0 0 0 0 0 0 0 0 0 0 0 0 0 0 0 0 0 0 0 0 0 0 0
0 0 0 0 0 0 0 0 0 0 0 0 0 0 0 0 0 0 0 0 0 0 0 0 0 0 0 0 0 0 0 0 0 -0 0 0 -0 0 0 0 0 0 0
Wind_Speed
10 8 8 7 7 5 4 3 2 3 5 5 5 4 4 4 4 3 3 2 3 3 2 2 1 2 2 3 2 2 2 2 2 3 2 1 1 0 2 2 3 4 7
9 8 8 7 7 6 6 5 4 3 3 4 3 3 3 2 2 3 3 2 2 2 2 1 1 1 1 2 3 3 3 2 2 3 3 2 1 1 2 3 4 6 4
9 9 8 7 6 6 5 5 4 3 3 3 3 3 2 1 1 1 1 0 0 0 0 0 1 2 2 2 2 3 3 3 2 2 4 3 2 2 2 4 5 4 7
10 9 8 7 6 6 5 5 4 4 3 3 3 3 3 3 3 2 1 1 2 3 3 4 4 4 3 4 3 4 4 4 4 3 3 3 3 3 2 3 4 3 4
9 9 8 7 7 6 6 5 5 5 4 4 4 4 4 4 4 3 2 2 3 4 4 5 6 7 7 5 4 4 4 4 4 4 4 4 3 4 3 3 4 4 4
8 8 8 8 7 7 7 7 6 5 5 6 6 6 7 6 8 8 5 4 5 5 4 4 4 7 7 6 6 5 4 3 3 3 3 4 5 4 4 5 4 4 4
7 7 8 8 7 7 8 8 7 7 7 8 8 10 10 10 11 11 10 5 5 5 5 5 5 8 9 7 5 4 3 1 2 2 3 4 4 4 4 5 5 5 6
8 7 7 8 8 8 8 9 9 8 8 9 10 11 10 11 12 12 9 5 5 5 6 6 7 7 8 8 6 6 5 4 3 2 3 4 4 3 3 4 6 6 7
8 8 9 10 10 10 10 10 9 9 9 9 9 10 10 10 13 13 9 3 4 5 6 7 7 7 9 10 6 6 6 5 6 6 6 7 9 10 7 4 5 5 6
10 11 11 11 11 11 11 10 8 8 9 9 10 9 10 9 12 14 10 5 4 3 5 7 11 8 7 8 6 5 5 6 8 9 8 8 8 8 9 6 4 5 5
13 13 12 12 11 11 10 8 8 8 8 9 9 9 8 8 10 13 12 7 6 5 3 4 4 5 5 5 5 4 4 6 7 7 6 5 4 3 3 2 2 3 5
13 13 12 11 10 10 9 8 7 7 8 7 7 7 7 6 8 8 10 9 8 6 5 4 3 5 7 7 5 5 8 8 6 5 5 5 5 6 6 6 5 5 5
14 13 12 11 9 8 8 7 5 4 4 5 5 5 6 5 5 7 6 7 7 4 5 6 7 9 9 6 4 6 6 4 5 5 5 5 6 6 6 5 6 6 6
13 11 10 10 10 9 7 7 7 5 5 5 5 6 6 7 7 6 5 5 7 6 7 9 10 7 5 5 4 2 2 3 4 5 5 5 5 6 6 6 7 7 7
11 10 10 10 11 11 11 10 10 9 8 8 8 7 6 6 5 6 5 5 6 6 8 6 4 3 4 4 4 4 4 5 6 6 6 6 6 6 6 6 6 7 8
8 8 7 8 8 9 10 10 15 12 14 16 13 10 7 5 2 5 7 8 9 9 6 5 4 5 6 6 6 6 5 6 6 6 6 6 6 7 7 7 7 7 7
7 6 6 7 7 7 7 8 8 8 10 11 11 10 7 3 2 5 7 10 11 7 4 3 5 5 5 6 6 6 6 6 5 6 6 6 6 7 7 7 8 7 7
7 7 6 5 5 6 5 6 7 7 6 4 4 3 2 2 4 7 9 9 4 1 3 5 5 5 5 5 6 6 6 6 6 6 6 6 6 7 7 8 8 9 9
7 5 5 5 5 5 4 5 5 6 5 5 4 2 4 5 7 8 7 5 6 6 6 6 6 6 5 5 5 5 6 6 6 6 6 6 7 7 7 8 8 10 9
7 8 5 4 5 5 5 5 5 4 4 5 5 4 2 2 0 1 1 4 5 6 6 6 5 5 5 4 5 5 6 6 7 6 7 7 8 8 9 10 9 9 8
6 5 5 5 6 5 5 5 5 5 5 5 6 5 4 4 5 5 5 5 5 6 5 5 5 5 5 5 5 6 7 6 6 7 8 8 9 9 8 9 9 9 9
5 5 6 6 6 5 5 5 5 4 4 5 4 4 1 3 5 5 5 5 5 4 5 4 5 5 5 5 5 6 6 7 8 8 9 9 9 9 9 9 9 9 9
5 7 6 6 5 4 3 4 4 4 5 5 5 4 4 4 4 5 5 5 4 4 4 4 4 5 5 5 5 5 6 7 8 9 10 10 10 9 9 10 11 11 11
5 6 6 5 4 3 4 5 5 5 5 4 4 4 4 3 4 4 4 4 5 4 4 4 5 6 7 5 4 5 6 6 8 8 11 11 11 10 10 10 11 12 11
5 5 5 4 4 4 4 4 5 4 4 3 4 4 4 4 4 4 4 4 5 5 6 6 5 6 8 9 8 7 6 6 6 8 9 9 11 12 11 12 10 11 11
5 5 4 4 4 4 4 4 4 3 3 3 3 3 3 3 4 4 4 5 5 5 5 5 7 8 8 7 8 6 5 7 8 9 9 9 10 10 11 9 12 11 11
Wind_Direction
167 169 164 168 172 172 173 172 180 157 151 157 167 174 179 185 183 196 242 198 208 234 253 250 250 287 323 331 325 310 301 305 284 291 298 332 129 184 155 229 238 211 213
167 165 163 163 168 172 176 177 178 161 157 163 166 167 179 180 170 186 234 229 202 218 246 266 269 264 265 311 327 330 331 328 312 303 314 330 325 265 234 246 262 260 249
165 162 162 165 167 171 171 169 162 154 155 148 145 143 137 122 125 162 190 225 125 17 344 2 357 -0 349 341 329 332 330 325 333 308 298 303 297 293 290 274 276 285 288
163 162 162 169 169 172 167 159 155 151 146 130 120 110 103 84 65 50 62 64 63 54 48 50 43 41 21 353 353 356 341 332 324 308 296 295 294 302 301 288 288 287 286
156 159 162 166 160 159 153 148 141 137 136 119 107 97 91 77 47 41 46 87 82 68 62 61 61 61 52 35 24 11 359 349 337 329 319 320 330 342 334 323 309 310 297
150 156 156 152 149 146 142 137 128 118 105 97 89 81 68 55 41 48 47 62 76 75 73 74 80 61 48 44 37 30 20 355 349 337 328 333 335 342 344 331 327 323 308
141 139 138 143 141 137 134 125 118 111 102 94 89 84 73 50 42 46 46 55 70 67 62 51 48 53 37 22 11 6 11 350 284 308 314 322 324 348 349 332 324 313 296
127 129 132 132 124 118 114 109 105 100 97 93 89 86 79 54 41 41 35 58 76 74 71 68 71 57 35 15 4 7 355 352 325 292 318 319 320 328 309 293 288 287 274
118 114 115 115 111 107 106 104 101 100 98 96 93 90 82 56 40 35 27 50 74 78 78 65 70 66 36 18 10 0 353 348 346 346 313 287 280 276 269 285 291 298 299
105 100 99 102 104 106 105 104 102 101 100 97 93 90 86 70 47 40 27 37 47 58 91 83 68 62 39 23 9 353 348 345 336 324 310 290 276 268 254 238 267 293 303
101 97 95 95 97 99 98 99 102 102 101 101 101 95 89 83 64 51 43 37 21 21 45 80 72 41 16 359 339 322 324 318 309 300 299 308 320 324 332 321 303 307 309
98 97 95 92 95 97 96 96 100 109 115 116 118 116 103 86 69 60 50 40 20 16 23 33 22 336 324 312 305 302 312 313 302 314 329 340 348 353 350 342 328 312 294
97 96 96 94 90 94 98 98 100 102 115 123 121 113 108 93 71 50 35 25 13 8 3 346 317 299 302 299 270 290 307 317 337 342 342 346 348 343 334 328 326 319 310
103 102 100 95 87 75 71 69 62 48 58 73 73 77 80 67 41 21 14 17 9 12 356 322 304 288 281 302 323 317 322 349 352 347 344 342 340 337 336 337 332 329 321
101 101 98 93 90 78 70 59 65 52 53 64 61 61 64 63 37 19 14 8 358 357 332 310 328 10 13 12 10 15 11 8 5 357 348 343 341 337 333 333 328 325 320
104 108 109 108 107 105 99 81 57 67 70 75 77 83 82 84 58 6 357 340 328 333 331 329 359 15 12 8 3 2 6 8 359 345 340 339 337 333 329 327 323 320 319
94 96 106 112 116 119 120 120 111 80 65 72 80 84 91 94 357 334 334 325 309 313 316 344 16 16 11 8 5 1 358 356 349 343 341 338 334 329 326 324 322 319 317
91 89 95 98 103 111 120 126 130 132 126 108 101 119 150 223 286 307 326 325 331 23 9 18 17 12 11 9 4 358 349 345 345 339 332 332 332 328 323 321 319 318 317
83 78 78 88 94 94 99 109 111 115 120 130 139 162 231 250 259 277 310 329 6 20 19 15 11 5 4 5 2 353 346 341 339 335 336 339 333 326 320 318 314 314 312
79 71 67 81 90 89 81 80 82 88 93 99 98 63 16 305 49 47 50 20 17 18 15 9 3 357 1 5 360 355 345 340 341 343 342 336 330 324 317 314 311 309 306
100 90 81 78 75 73 75 75 72 66 69 76 82 70 10 354 29 33 31 29 22 12 11 4 354 354 6 5 358 345 342 345 350 347 338 328 321 316 312 309 307 304 302
103 96 86 85 78 67 64 70 74 71 67 72 98 110 46 1 29 30 24 23 17 8 10 0 349 358 8 359 346 345 349 355 351 337 325 317 312 309 308 305 304 305 305
104 103 98 95 96 101 92 81 75 69 60 53 48 50 54 31 25 29 20 20 11 4 4 352 346 359 6 355 354 10 14 359 338 324 318 314 311 308 305 302 302 304 304
97 100 102 103 101 97 88 81 70 64 58 51 49 41 40 37 29 31 20 17 4 359 356 347 349 353 358 1 8 23 20 351 331 321 317 309 304 300 300 301 302 303 305
97 92 92 89 87 82 76 75 70 61 55 50 48 38 28 24 27 29 21 11 355 355 352 348 350 351 359 16 18 13 358 333 318 317 311 302 299 299 298 300 303 305 307
101 98 95 92 86 85 82 77 72 62 57 53 48 34 18 13 24 24 14 2 350 351 351 347 347 358 8 16 17 12 344 326 318 312 306 299 297 299 305 305 308 309 309